Time,TemperatureF,DewpointF,PressureIn,WindDirection,WindDirectionDegrees,WindSpeedMPH,WindSpeedGustMPH,Humidity,HourlyPrecipIn,Conditions,Clouds,dailyrainin,SolarRadiationWatts/m^2,SoftwareType,DateUTC
2013-01-10 00:01:00,40.3,40.3,30.04,WNW,298,3.5,0.0,100,0.00,RA,,0.00,0.0,WeatherDisplay:10.37,2013-01-10 00:01:00,
2013-01-10 00:06:00,40.2,40.2,30.05,WNW,296,2.3,2.3,100,0.00,RA,,0.00,0.0,WeatherDisplay:10.37,2013-01-10 00:06:00,
2013-01-10 00:11:00,40.1,40.1,30.04,NW,304,1.2,0.0,100,0.00,,,0.00,0.0,WeatherDisplay:10.37,2013-01-10 00:11:00,
2013-01-10 00:16:00,39.9,39.9,30.04,WNW,299,2.0,2.0,100,0.00,,,0.00,0.0,WeatherDisplay:10.37,2013-01-10 00:16:00,
2013-01-10 00:21:00,39.8,39.8,30.04,NW,304,2.3,2.3,100,0.00,,,0.00,0.0,WeatherDisplay:10.37,2013-01-10 00:21:00,
2013-01-10 00:27:00,39.6,39.6,30.04,NW,304,1.2,1.2,100,0.00,,,0.00,0.0,WeatherDisplay:10.37,2013-01-10 00:27:00,
2013-01-10 00:32:00,39.6,39.6,30.03,WNW,288,2.3,2.3,100,0.00,,,0.00,0.0,WeatherDisplay:10.37,2013-01-10 00:32:00,
2013-01-10 00:37:00,39.5,39.5,30.03,WNW,291,2.3,2.3,100,0.00,,,0.00,0.0,WeatherDisplay:10.37,2013-01-10 00:37:00,
2013-01-10 00:42:00,39.3,39.3,30.03,WNW,299,2.3,2.3,100,0.00,,,0.00,0.0,WeatherDisplay:10.37,2013-01-10 00:42:00,
2013-01-10 00:47:00,39.3,39.3,30.03,WNW,295,2.3,2.3,100,0.00,,,0.00,0.0,WeatherDisplay:10.37,2013-01-10 00:47:00,
2013-01-10 00:52:00,39.3,39.3,30.03,WNW,285,3.5,3.5,100,0.00,,,0.00,0.0,WeatherDisplay:10.37,2013-01-10 00:52:00,
2013-01-10 00:57:00,39.2,39.2,30.02,WNW,296,2.3,2.3,100,0.00,,,0.00,0.0,WeatherDisplay:10.37,2013-01-10 00:57:00,
2013-01-10 01:02:00,39.2,39.2,30.03,WNW,299,2.3,2.3,100,0.00,,,0.00,0.0,WeatherDisplay:10.37,2013-01-10 01:02:00,
2013-01-10 01:07:00,39.2,39.2,30.02,WNW,301,0.0,0.0,100,0.00,,,0.00,0.0,WeatherDisplay:10.37,2013-01-10 01:07:00,
2013-01-10 01:13:00,39.1,39.1,30.03,WNW,289,1.2,1.2,100,0.00,,,0.00,0.0,WeatherDisplay:10.37,2013-01-10 01:13:00,
2013-01-10 01:18:00,39.1,39.1,30.03,WNW,294,3.5,3.5,100,0.00,,,0.00,0.0,WeatherDisplay:10.37,2013-01-10 01:18:00,
2013-01-10 01:23:00,39.1,39.1,30.03,WNW,292,2.3,2.3,100,0.00,,,0.00,0.0,WeatherDisplay:10.37,2013-01-10 01:23:00,
2013-01-10 01:28:00,38.9,38.9,30.02,WNW,295,0.0,0.0,100,0.00,,,0.00,0.0,WeatherDisplay:10.37,2013-01-10 01:28:00,
2013-01-10 01:33:00,38.8,38.8,30.02,WNW,294,0.0,0.0,100,0.00,,,0.00,0.0,WeatherDisplay:10.37,2013-01-10 01:33:00,
2013-01-10 01:38:00,38.5,38.5,30.02,WNW,294,0.0,0.0,100,0.00,,,0.00,0.0,WeatherDisplay:10.37,2013-01-10 01:38:00,
2013-01-10 01:43:00,38.3,38.3,30.02,WNW,298,0.0,0.0,100,0.00,,,0.00,0.0,WeatherDisplay:10.37,2013-01-10 01:43:00,
2013-01-10 01:49:00,38.2,38.2,30.03,WNW,291,0.0,0.0,100,0.00,,,0.00,0.0,WeatherDisplay:10.37,2013-01-10 01:49:00,
2013-01-10 01:54:00,37.9,37.9,30.02,WNW,289,2.3,2.3,100,0.00,,,0.00,0.0,WeatherDisplay:10.37,2013-01-10 01:54:00,
2013-01-10 01:59:00,37.9,37.9,30.02,WNW,299,0.0,0.0,100,0.00,,,0.00,0.0,WeatherDisplay:10.37,2013-01-10 01:59:00,
2013-01-10 02:04:00,38.0,38.0,30.02,WNW,295,0.0,0.0,100,0.00,,,0.00,0.0,WeatherDisplay:10.37,2013-01-10 02:04:00,
2013-01-10 02:10:00,38.2,38.2,30.02,WNW,289,1.2,1.2,100,0.00,,,0.00,0.0,WeatherDisplay:10.37,2013-01-10 02:10:00,
2013-01-10 02:15:00,38.2,38.2,30.02,WNW,294,1.0,2.0,100,0.00,,,0.00,0.0,WeatherDisplay:10.37,2013-01-10 02:15:00,
2013-01-10 02:20:00,38.2,38.2,30.02,WNW,299,0.0,0.0,100,0.00,,,0.00,0.0,WeatherDisplay:10.37,2013-01-10 02:20:00,
2013-01-10 02:25:00,38.2,38.2,30.02,WNW,296,0.0,0.0,100,0.00,,,0.00,0.0,WeatherDisplay:10.37,2013-01-10 02:25:00,
2013-01-10 02:30:00,38.2,38.2,30.02,WNW,295,0.0,0.0,100,0.00,,,0.00,0.0,WeatherDisplay:10.37,2013-01-10 02:30:00,
2013-01-10 02:35:00,38.2,38.2,30.02,WNW,298,1.2,1.2,100,0.00,,,0.00,0.0,WeatherDisplay:10.37,2013-01-10 02:35:00,
2013-01-10 02:40:00,38.2,38.2,30.02,WNW,294,0.0,0.0,100,0.00,,,0.00,0.0,WeatherDisplay:10.37,2013-01-10 02:40:00,
2013-01-10 02:45:00,38.3,38.3,30.02,WNW,291,0.0,0.0,100,0.00,,,0.00,0.0,WeatherDisplay:10.37,2013-01-10 02:45:00,
2013-01-10 02:50:00,38.3,38.3,30.02,WNW,289,0.0,0.0,100,0.00,,,0.00,0.0,WeatherDisplay:10.37,2013-01-10 02:50:00,
2013-01-10 02:55:00,38.2,38.2,30.02,WNW,291,0.0,0.0,100,0.00,,,0.00,0.0,WeatherDisplay:10.37,2013-01-10 02:55:00,
2013-01-10 03:00:00,38.2,38.2,30.01,WNW,291,0.0,0.0,100,0.00,,,0.00,0.0,WeatherDisplay:10.37,2013-01-10 03:00:00,
2013-01-10 03:06:00,38.0,38.0,30.01,WNW,294,0.0,0.0,100,0.00,,,0.00,0.0,WeatherDisplay:10.37,2013-01-10 03:06:00,
2013-01-10 03:11:00,38.0,38.0,30.01,WNW,292,2.3,2.3,100,0.00,,,0.00,0.0,WeatherDisplay:10.37,2013-01-10 03:11:00,
2013-01-10 03:16:00,37.9,37.9,30.01,WNW,298,0.0,0.0,100,0.00,,,0.00,0.0,WeatherDisplay:10.37,2013-01-10 03:16:00,
2013-01-10 03:21:00,37.9,37.9,30.01,WNW,298,0.0,0.0,100,0.00,,,0.00,0.0,WeatherDisplay:10.37,2013-01-10 03:21:00,
2013-01-10 03:26:00,37.9,37.9,30.00,WNW,299,2.3,2.3,100,0.00,,,0.00,0.0,WeatherDisplay:10.37,2013-01-10 03:26:00,
2013-01-10 03:31:00,37.8,37.8,30.00,WNW,299,0.0,0.0,100,0.00,,,0.00,0.0,WeatherDisplay:10.37,2013-01-10 03:31:00,
2013-01-10 03:36:00,37.8,37.8,30.00,WNW,299,2.3,2.3,100,0.00,,,0.00,0.0,WeatherDisplay:10.37,2013-01-10 03:36:00,
2013-01-10 03:42:00,37.8,37.8,30.00,WNW,291,0.0,0.0,100,0.00,,,0.00,0.0,WeatherDisplay:10.37,2013-01-10 03:42:00,
2013-01-10 03:47:00,37.9,37.9,30.00,WNW,294,0.0,0.0,100,0.00,,,0.00,0.0,WeatherDisplay:10.37,2013-01-10 03:47:00,
2013-01-10 03:52:00,38.0,38.0,30.01,WNW,295,1.2,1.2,100,0.00,,,0.00,0.0,WeatherDisplay:10.37,2013-01-10 03:52:00,
2013-01-10 03:57:00,38.3,38.3,30.00,WNW,301,2.3,2.3,100,0.00,,,0.00,0.0,WeatherDisplay:10.37,2013-01-10 03:57:00,
2013-01-10 04:02:00,38.3,38.3,30.00,WNW,298,0.0,0.0,100,0.00,,,0.00,0.0,WeatherDisplay:10.37,2013-01-10 04:02:00,
2013-01-10 04:07:00,38.3,38.3,30.00,NW,306,3.5,3.5,100,0.00,,,0.00,0.0,WeatherDisplay:10.37,2013-01-10 04:07:00,
2013-01-10 04:13:00,38.2,38.2,30.00,WNW,299,0.0,0.0,100,0.00,,,0.00,0.0,WeatherDisplay:10.37,2013-01-10 04:13:00,
2013-01-10 04:18:00,38.0,38.0,30.00,WNW,296,1.2,1.2,100,0.00,,,0.00,0.0,WeatherDisplay:10.37,2013-01-10 04:18:00,
2013-01-10 04:23:00,37.9,37.9,30.00,WNW,301,0.0,0.0,100,0.00,,,0.00,0.0,WeatherDisplay:10.37,2013-01-10 04:23:00,
2013-01-10 04:28:00,37.6,37.6,30.00,NW,305,2.3,2.3,100,0.00,,,0.00,0.0,WeatherDisplay:10.37,2013-01-10 04:28:00,
2013-01-10 04:34:00,37.5,37.5,30.00,WNW,302,1.2,1.2,100,0.00,,,0.00,0.0,WeatherDisplay:10.37,2013-01-10 04:34:00,
2013-01-10 04:39:00,37.5,37.5,29.99,WNW,295,3.5,3.5,100,0.00,,,0.00,0.0,WeatherDisplay:10.37,2013-01-10 04:39:00,
2013-01-10 04:44:00,37.3,37.3,30.00,WNW,288,1.2,1.2,100,0.00,,,0.00,0.0,WeatherDisplay:10.37,2013-01-10 04:44:00,
2013-01-10 04:49:00,37.2,37.2,29.99,WNW,288,3.5,3.5,100,0.00,,,0.00,0.0,WeatherDisplay:10.37,2013-01-10 04:49:00,
2013-01-10 04:54:00,37.0,37.0,29.99,West,270,5.8,5.8,100,0.00,,,0.00,0.0,WeatherDisplay:10.37,2013-01-10 04:54:00,
2013-01-10 05:00:00,36.9,36.9,29.99,WNW,292,2.3,2.3,100,0.00,,,0.00,0.0,WeatherDisplay:10.37,2013-01-10 05:00:00,
2013-01-10 05:04:00,36.8,36.8,30.00,West,281,1.2,1.2,100,0.00,,,0.00,0.0,WeatherDisplay:10.37,2013-01-10 05:04:00,
2013-01-10 05:09:00,36.6,36.6,29.99,WNW,288,3.5,3.5,100,0.00,,,0.00,0.0,WeatherDisplay:10.37,2013-01-10 05:09:00,
2013-01-10 05:15:00,36.5,36.5,30.00,SW,230,0.0,0.0,100,0.00,,,0.00,0.0,WeatherDisplay:10.37,2013-01-10 05:15:00,
2013-01-10 05:20:00,36.6,36.6,29.99,West,265,2.3,2.3,100,0.00,,,0.00,0.0,WeatherDisplay:10.37,2013-01-10 05:20:00,
2013-01-10 05:25:00,36.9,36.9,29.99,WSW,246,1.2,1.2,100,0.00,,,0.00,0.0,WeatherDisplay:10.37,2013-01-10 05:25:00,
2013-01-10 05:30:00,37.2,37.2,29.99,WSW,246,0.0,0.0,100,0.00,,,0.00,0.0,WeatherDisplay:10.37,2013-01-10 05:30:00,
2013-01-10 05:35:00,37.5,37.5,29.99,West,264,1.2,1.2,100,0.00,,,0.00,0.0,WeatherDisplay:10.37,2013-01-10 05:35:00,
2013-01-10 05:40:00,37.6,37.6,29.99,WNW,298,2.3,2.3,100,0.00,,,0.00,0.0,WeatherDisplay:10.37,2013-01-10 05:40:00,
2013-01-10 05:46:00,37.8,37.8,29.99,WNW,291,0.0,0.0,100,0.00,,,0.00,0.0,WeatherDisplay:10.37,2013-01-10 05:46:00,
2013-01-10 05:51:00,37.9,37.9,29.99,WNW,285,0.0,0.0,100,0.00,,,0.00,0.0,WeatherDisplay:10.37,2013-01-10 05:51:00,
2013-01-10 05:56:00,37.9,37.9,29.99,West,272,1.2,0.0,100,0.00,,,0.00,0.0,WeatherDisplay:10.37,2013-01-10 05:56:00,
2013-01-10 06:01:00,38.0,38.0,29.99,West,278,1.2,0.0,100,0.00,,,0.00,0.0,WeatherDisplay:10.37,2013-01-10 06:01:00,
2013-01-10 06:06:00,38.0,38.0,29.99,West,268,1.2,0.0,100,0.00,,,0.00,0.0,WeatherDisplay:10.37,2013-01-10 06:06:00,
2013-01-10 06:12:00,38.3,38.3,29.99,West,277,1.2,1.2,100,0.00,,,0.00,0.0,WeatherDisplay:10.37,2013-01-10 06:12:00,
2013-01-10 06:17:00,38.3,38.3,29.99,West,270,1.2,0.0,100,0.00,,,0.00,0.0,WeatherDisplay:10.37,2013-01-10 06:17:00,
2013-01-10 06:22:00,38.2,38.2,29.99,West,272,0.0,0.0,100,0.00,,,0.00,0.0,WeatherDisplay:10.37,2013-01-10 06:22:00,
2013-01-10 06:27:00,38.2,38.2,29.99,West,268,0.0,0.0,100,0.00,,,0.00,0.0,WeatherDisplay:10.37,2013-01-10 06:27:00,
2013-01-10 06:32:00,38.2,38.2,29.99,West,277,0.0,0.0,100,0.00,,,0.00,0.0,WeatherDisplay:10.37,2013-01-10 06:32:00,
2013-01-10 06:37:00,38.0,38.0,29.99,West,270,0.0,0.0,100,0.00,,,0.00,0.0,WeatherDisplay:10.37,2013-01-10 06:37:00,
2013-01-10 06:42:00,37.9,37.9,29.98,West,268,0.0,0.0,100,0.00,,,0.00,0.0,WeatherDisplay:10.37,2013-01-10 06:42:00,
2013-01-10 06:47:00,37.6,37.6,29.98,West,272,1.2,0.0,100,0.00,,,0.00,0.0,WeatherDisplay:10.37,2013-01-10 06:47:00,
2013-01-10 06:52:00,37.5,37.5,29.98,West,274,0.0,0.0,100,0.00,,,0.00,0.0,WeatherDisplay:10.37,2013-01-10 06:52:00,
2013-01-10 06:57:00,37.2,37.2,29.98,West,270,0.0,0.0,100,0.00,,,0.00,0.0,WeatherDisplay:10.37,2013-01-10 06:57:00,
2013-01-10 07:02:00,37.0,37.0,29.98,West,271,0.0,0.0,100,0.00,,,0.00,0.0,WeatherDisplay:10.37,2013-01-10 07:02:00,
2013-01-10 07:07:00,36.8,36.8,29.98,West,272,0.0,0.0,100,0.00,,,0.00,0.0,WeatherDisplay:10.37,2013-01-10 07:07:00,
2013-01-10 07:12:00,36.5,36.5,29.98,West,271,0.0,0.0,100,0.00,,,0.00,0.0,WeatherDisplay:10.37,2013-01-10 07:12:00,
2013-01-10 07:18:00,36.2,36.2,29.98,West,270,0.0,0.0,100,0.00,,,0.00,0.0,WeatherDisplay:10.37,2013-01-10 07:18:00,
2013-01-10 07:23:00,36.0,36.0,29.99,West,271,0.0,0.0,100,0.00,,,0.00,0.0,WeatherDisplay:10.37,2013-01-10 07:23:00,
2013-01-10 07:28:00,35.8,35.8,29.98,West,275,0.0,0.0,100,0.00,,,0.00,0.0,WeatherDisplay:10.37,2013-01-10 07:28:00,
2013-01-10 07:33:00,35.6,35.6,29.98,West,268,0.0,0.0,100,0.00,,,0.00,0.0,WeatherDisplay:10.37,2013-01-10 07:33:00,
2013-01-10 07:38:00,35.3,35.3,29.98,West,275,0.0,0.0,100,0.00,,,0.00,0.0,WeatherDisplay:10.37,2013-01-10 07:38:00,
2013-01-10 07:44:00,35.2,35.2,29.99,West,272,0.0,0.0,100,0.00,,,0.00,0.0,WeatherDisplay:10.37,2013-01-10 07:44:00,
2013-01-10 07:49:00,35.0,35.0,29.99,West,268,0.0,0.0,100,0.00,,,0.00,0.0,WeatherDisplay:10.37,2013-01-10 07:49:00,
2013-01-10 07:54:00,34.9,34.9,29.99,West,275,0.0,0.0,100,0.00,,,0.00,0.0,WeatherDisplay:10.37,2013-01-10 07:54:00,
2013-01-10 07:59:00,34.7,34.7,29.99,West,275,0.0,0.0,100,0.00,,,0.00,0.0,WeatherDisplay:10.37,2013-01-10 07:59:00,
2013-01-10 08:04:00,34.7,34.7,29.99,West,277,0.0,0.0,100,0.00,,,0.00,0.0,WeatherDisplay:10.37,2013-01-10 08:04:00,
2013-01-10 08:09:00,34.6,34.6,29.99,West,278,0.0,0.0,100,0.00,,,0.00,0.0,WeatherDisplay:10.37,2013-01-10 08:09:00,
2013-01-10 08:14:00,34.6,34.6,29.98,West,278,0.0,0.0,100,0.00,OVC,,0.00,0.0,WeatherDisplay:10.37,2013-01-10 08:14:00,
2013-01-10 08:19:00,34.4,34.4,29.99,West,274,0.0,0.0,100,0.00,OVC,,0.00,0.0,WeatherDisplay:10.37,2013-01-10 08:19:00,
2013-01-10 08:24:00,34.4,34.4,29.99,West,278,0.0,0.0,100,0.00,OVC,,0.00,0.0,WeatherDisplay:10.37,2013-01-10 08:24:00,
2013-01-10 08:30:00,34.3,34.3,29.99,West,278,0.0,0.0,100,0.00,OVC,,0.00,5.0,WeatherDisplay:10.37,2013-01-10 08:30:00,
2013-01-10 08:35:00,34.1,34.1,29.99,West,271,0.0,0.0,100,0.00,OVC,,0.00,5.0,WeatherDisplay:10.37,2013-01-10 08:35:00,
2013-01-10 08:40:00,34.0,34.0,29.99,West,278,0.0,0.0,100,0.00,OVC,,0.00,5.0,WeatherDisplay:10.37,2013-01-10 08:40:00,
2013-01-10 08:45:00,34.0,34.0,29.99,West,275,2.3,2.3,100,0.00,OVC,,0.00,7.0,WeatherDisplay:10.37,2013-01-10 08:45:00,
2013-01-10 08:50:00,33.8,33.8,29.99,West,274,0.0,0.0,100,0.00,OVC,,0.00,7.0,WeatherDisplay:10.37,2013-01-10 08:50:00,
2013-01-10 08:55:00,33.8,33.8,29.99,WNW,282,2.3,2.3,100,0.00,CLR,,0.00,9.0,WeatherDisplay:10.37,2013-01-10 08:55:00,
2013-01-10 09:01:00,33.8,33.8,29.99,West,281,2.3,2.3,100,0.00,CLR,,0.00,11.0,WeatherDisplay:10.37,2013-01-10 09:01:00,
2013-01-10 09:06:00,33.8,33.8,29.99,WNW,282,1.2,1.2,100,0.00,SCT,,0.00,12.0,WeatherDisplay:10.37,2013-01-10 09:06:00,
2013-01-10 09:11:00,34.0,34.0,29.99,West,275,2.0,2.0,100,0.00,SCT,,0.00,12.0,WeatherDisplay:10.37,2013-01-10 09:11:00,
2013-01-10 09:16:00,34.0,34.0,29.99,West,280,0.0,0.0,100,0.00,BKN,,0.00,14.0,WeatherDisplay:10.37,2013-01-10 09:16:00,
2013-01-10 09:21:00,34.0,34.0,29.99,West,274,2.3,2.3,100,0.00,BKN,,0.00,16.0,WeatherDisplay:10.37,2013-01-10 09:21:00,
2013-01-10 09:27:00,34.1,34.1,29.99,West,270,1.2,1.2,100,0.00,BKN,,0.00,18.0,WeatherDisplay:10.37,2013-01-10 09:27:00,
2013-01-10 09:32:00,34.3,34.3,29.99,West,265,2.3,2.3,100,0.00,BKN,,0.00,19.0,WeatherDisplay:10.37,2013-01-10 09:32:00,
2013-01-10 09:37:00,34.4,34.4,29.99,West,263,0.0,0.0,100,0.00,BKN,,0.00,21.0,WeatherDisplay:10.37,2013-01-10 09:37:00,
2013-01-10 09:42:00,34.4,34.4,29.99,West,271,0.0,0.0,100,0.00,BKN,,0.00,23.0,WeatherDisplay:10.37,2013-01-10 09:42:00,
2013-01-10 09:47:00,34.6,34.6,29.99,West,271,0.0,0.0,100,0.00,BKN,,0.00,25.0,WeatherDisplay:10.37,2013-01-10 09:47:00,
2013-01-10 09:52:00,34.7,34.7,29.99,West,265,0.0,0.0,100,0.00,OVC,,0.00,26.0,WeatherDisplay:10.37,2013-01-10 09:52:00,
2013-01-10 09:58:00,34.7,34.7,29.99,West,261,1.2,0.0,100,0.00,BKN,,0.00,32.0,WeatherDisplay:10.37,2013-01-10 09:58:00,
2013-01-10 10:03:00,34.7,34.7,29.99,West,267,0.0,0.0,100,0.00,BKN,,0.00,32.0,WeatherDisplay:10.37,2013-01-10 10:03:00,
2013-01-10 10:08:00,34.7,34.7,29.99,West,270,0.0,0.0,100,0.00,BKN,,0.00,39.0,WeatherDisplay:10.37,2013-01-10 10:08:00,
2013-01-10 10:13:00,34.7,34.7,29.99,West,271,0.0,0.0,100,0.00,BKN,,0.00,40.0,WeatherDisplay:10.37,2013-01-10 10:13:00,
2013-01-10 10:18:00,34.7,34.7,29.99,West,268,0.0,0.0,100,0.00,BKN,,0.00,42.0,WeatherDisplay:10.37,2013-01-10 10:18:00,
2013-01-10 10:23:00,34.9,34.9,29.99,West,263,0.0,0.0,100,0.00,BKN,,0.00,48.0,WeatherDisplay:10.37,2013-01-10 10:23:00,
2013-01-10 10:28:00,34.9,34.9,30.00,West,271,0.0,0.0,100,0.00,BKN,,0.00,48.0,WeatherDisplay:10.37,2013-01-10 10:28:00,
2013-01-10 10:33:00,35.0,35.0,30.00,West,268,0.0,0.0,100,0.00,BKN,,0.00,49.0,WeatherDisplay:10.37,2013-01-10 10:33:00,
2013-01-10 10:38:00,35.0,35.0,30.00,West,265,0.0,0.0,100,0.00,BKN,,0.00,60.0,WeatherDisplay:10.37,2013-01-10 10:38:00,
2013-01-10 10:43:00,35.0,35.0,29.99,West,263,0.0,0.0,100,0.00,SCT,,0.00,69.0,WeatherDisplay:10.37,2013-01-10 10:43:00,
2013-01-10 10:48:00,35.0,35.0,29.99,West,270,0.0,0.0,100,0.00,BKN,,0.00,74.0,WeatherDisplay:10.37,2013-01-10 10:48:00,
2013-01-10 10:54:00,35.0,35.0,29.99,West,261,0.0,0.0,100,0.00,SCT,,0.00,79.0,WeatherDisplay:10.37,2013-01-10 10:54:00,
2013-01-10 10:59:00,35.2,35.2,29.99,West,272,0.0,0.0,100,0.00,SCT,,0.00,86.0,WeatherDisplay:10.37,2013-01-10 10:59:00,
2013-01-10 11:04:00,35.2,35.2,29.99,West,264,0.0,0.0,100,0.00,SCT,,0.00,91.0,WeatherDisplay:10.37,2013-01-10 11:04:00,
2013-01-10 11:10:00,35.2,35.2,29.99,West,270,0.0,0.0,100,0.00,SCT,,0.00,84.0,WeatherDisplay:10.37,2013-01-10 11:10:00,
2013-01-10 11:15:00,35.2,35.2,29.99,West,270,0.0,0.0,100,0.00,SCT,,0.00,79.0,WeatherDisplay:10.37,2013-01-10 11:15:00,
2013-01-10 11:20:00,35.2,35.2,29.99,West,271,0.0,0.0,100,0.00,SCT,,0.00,83.0,WeatherDisplay:10.37,2013-01-10 11:20:00,
2013-01-10 11:25:00,35.3,35.3,29.99,West,263,0.0,0.0,100,0.00,BKN,,0.00,76.0,WeatherDisplay:10.37,2013-01-10 11:25:00,
2013-01-10 11:30:00,35.5,35.5,29.99,West,267,0.0,0.0,100,0.00,SCT,,0.00,90.0,WeatherDisplay:10.37,2013-01-10 11:30:00,
2013-01-10 11:35:00,35.5,35.5,29.99,West,263,0.0,0.0,100,0.00,SCT,,0.00,88.0,WeatherDisplay:10.37,2013-01-10 11:35:00,
2013-01-10 11:41:00,35.5,35.5,29.99,West,265,0.0,0.0,100,0.00,SCT,,0.00,83.0,WeatherDisplay:10.37,2013-01-10 11:41:00,
2013-01-10 11:46:00,35.6,35.6,29.99,West,263,0.0,0.0,100,0.01,RA,,0.01,86.0,WeatherDisplay:10.37,2013-01-10 11:46:00,
2013-01-10 11:51:00,35.9,35.9,29.99,West,271,0.0,0.0,100,0.01,RA,,0.01,77.0,WeatherDisplay:10.37,2013-01-10 11:51:00,
2013-01-10 11:56:00,36.0,36.0,29.99,West,271,0.0,0.0,100,0.01,BKN,,0.01,77.0,WeatherDisplay:10.37,2013-01-10 11:56:00,
2013-01-10 12:01:00,36.3,36.3,29.98,West,271,1.2,0.0,100,0.01,BKN,,0.01,79.0,WeatherDisplay:10.37,2013-01-10 12:01:00,
2013-01-10 12:06:00,36.5,36.5,29.98,West,272,0.0,0.0,100,0.01,BKN,,0.01,74.0,WeatherDisplay:10.37,2013-01-10 12:06:00,
2013-01-10 12:11:00,36.5,36.5,29.98,WSW,250,0.0,0.0,100,0.01,BKN,,0.01,83.0,WeatherDisplay:10.37,2013-01-10 12:11:00,
2013-01-10 12:16:00,36.6,36.6,29.98,WSW,250,0.0,0.0,100,0.01,BKN,,0.01,74.0,WeatherDisplay:10.37,2013-01-10 12:16:00,
2013-01-10 12:21:00,36.8,36.8,29.98,WSW,250,0.0,0.0,100,0.01,BKN,,0.01,84.0,WeatherDisplay:10.37,2013-01-10 12:21:00,
2013-01-10 12:26:00,36.8,36.8,29.98,West,270,2.3,2.3,100,0.01,SCT,,0.01,91.0,WeatherDisplay:10.37,2013-01-10 12:26:00,
2013-01-10 12:31:00,37.0,37.0,29.98,WNW,282,3.5,3.5,100,0.01,SCT,,0.01,69.0,WeatherDisplay:10.37,2013-01-10 12:31:00,
2013-01-10 12:36:00,37.0,37.0,29.98,East,83,3.5,3.5,100,0.01,OVC,,0.01,60.0,WeatherDisplay:10.37,2013-01-10 12:36:00,
2013-01-10 12:42:00,37.2,37.2,29.98,East,88,1.2,0.0,100,0.01,BKN,,0.01,65.0,WeatherDisplay:10.37,2013-01-10 12:42:00,
2013-01-10 12:47:00,37.2,37.2,29.98,SE,140,3.5,3.5,100,0.00,BKN,,0.01,65.0,WeatherDisplay:10.37,2013-01-10 12:47:00,
2013-01-10 12:52:00,37.0,37.0,29.97,SE,137,2.3,2.3,100,0.00,BKN,,0.01,84.0,WeatherDisplay:10.37,2013-01-10 12:52:00,
2013-01-10 12:57:00,37.0,37.0,29.97,SE,136,2.3,2.3,100,0.00,BKN,,0.01,70.0,WeatherDisplay:10.37,2013-01-10 12:57:00,
2013-01-10 13:03:00,36.9,36.9,29.97,SE,130,0.0,0.0,100,0.00,BKN,,0.01,70.0,WeatherDisplay:10.37,2013-01-10 13:03:00,
2013-01-10 13:08:00,36.9,36.9,29.97,SE,137,1.2,1.2,100,0.00,SCT,,0.01,81.0,WeatherDisplay:10.37,2013-01-10 13:08:00,
2013-01-10 13:13:00,37.0,37.0,29.97,SE,133,1.2,0.0,100,0.00,SCT,,0.01,86.0,WeatherDisplay:10.37,2013-01-10 13:13:00,
2013-01-10 13:18:00,36.8,36.8,29.97,ESE,120,2.3,2.3,100,0.00,SCT,,0.01,76.0,WeatherDisplay:10.37,2013-01-10 13:18:00,
2013-01-10 13:23:00,36.6,36.6,29.96,SE,127,2.3,2.3,100,0.00,BKN,,0.01,56.0,WeatherDisplay:10.37,2013-01-10 13:23:00,
2013-01-10 13:28:00,36.6,36.6,29.96,SE,126,0.0,0.0,100,0.00,OVC,,0.01,48.0,WeatherDisplay:10.37,2013-01-10 13:28:00,
2013-01-10 13:33:00,36.5,36.5,29.96,ESE,123,0.0,0.0,100,0.00,OVC,,0.01,26.0,WeatherDisplay:10.37,2013-01-10 13:33:00,
2013-01-10 13:39:00,36.5,36.5,29.96,SE,131,0.0,0.0,100,0.00,OVC,,0.01,23.0,WeatherDisplay:10.37,2013-01-10 13:39:00,
2013-01-10 13:44:00,36.5,36.5,29.96,SE,130,0.0,0.0,100,0.00,OVC,,0.01,46.0,WeatherDisplay:10.37,2013-01-10 13:44:00,
2013-01-10 13:49:00,36.6,36.6,29.96,SE,126,0.0,0.0,100,0.00,BKN,,0.01,67.0,WeatherDisplay:10.37,2013-01-10 13:49:00,
2013-01-10 13:54:00,36.8,36.8,29.96,ESE,120,2.3,2.3,100,0.00,BKN,,0.01,60.0,WeatherDisplay:10.37,2013-01-10 13:54:00,
2013-01-10 13:59:00,36.8,36.8,29.96,SE,128,0.0,0.0,100,0.00,BKN,,0.01,56.0,WeatherDisplay:10.37,2013-01-10 13:59:00,
2013-01-10 14:04:00,36.9,36.9,29.96,SE,130,2.3,2.3,100,0.00,BKN,,0.01,53.0,WeatherDisplay:10.37,2013-01-10 14:04:00,
2013-01-10 14:10:00,36.9,36.9,29.96,ESE,121,0.0,0.0,100,0.00,BKN,,0.01,53.0,WeatherDisplay:10.37,2013-01-10 14:10:00,
2013-01-10 14:15:00,37.0,37.0,29.96,SE,125,0.0,3.0,100,0.00,OVC,,0.01,23.0,WeatherDisplay:10.37,2013-01-10 14:15:00,
2013-01-10 14:20:00,37.0,37.0,29.96,SE,130,1.2,1.2,100,0.00,OVC,,0.01,18.0,WeatherDisplay:10.37,2013-01-10 14:20:00,
2013-01-10 14:25:00,36.9,36.9,29.96,SE,128,0.0,0.4,100,0.00,OVC,,0.01,18.0,WeatherDisplay:10.37,2013-01-10 14:25:00,
2013-01-10 14:30:00,36.9,36.9,29.96,SE,128,0.0,0.0,100,0.00,OVC,,0.01,26.0,WeatherDisplay:10.37,2013-01-10 14:30:00,
2013-01-10 14:35:00,36.9,36.9,29.96,SE,126,0.0,0.0,100,0.00,OVC,,0.01,23.0,WeatherDisplay:10.37,2013-01-10 14:35:00,
2013-01-10 14:40:00,37.0,37.0,29.96,ESE,121,1.2,1.2,100,0.00,OVC,,0.01,25.0,WeatherDisplay:10.37,2013-01-10 14:40:00,
2013-01-10 14:45:00,37.0,37.0,29.96,ESE,123,0.0,0.0,100,0.00,OVC,,0.01,23.0,WeatherDisplay:10.37,2013-01-10 14:45:00,
2013-01-10 14:50:00,37.2,37.2,29.96,SE,127,0.0,0.0,100,0.00,OVC,,0.01,25.0,WeatherDisplay:10.37,2013-01-10 14:50:00,
2013-01-10 14:56:00,37.2,37.2,29.96,SE,130,0.0,0.0,100,0.00,OVC,,0.01,21.0,WeatherDisplay:10.37,2013-01-10 14:56:00,
2013-01-10 15:01:00,37.2,37.2,29.96,ESE,123,0.0,0.0,100,0.00,OVC,,0.01,23.0,WeatherDisplay:10.37,2013-01-10 15:01:00,
2013-01-10 15:06:00,37.3,37.3,29.96,ESE,120,2.0,2.0,100,0.00,BKN,,0.01,25.0,WeatherDisplay:10.37,2013-01-10 15:06:00,
2013-01-10 15:11:00,37.5,37.5,29.96,SE,124,1.2,1.2,100,0.00,SCT,,0.01,30.0,WeatherDisplay:10.37,2013-01-10 15:11:00,
2013-01-10 15:16:00,37.5,37.5,29.96,ESE,117,0.0,0.0,100,0.00,SCT,,0.01,32.0,WeatherDisplay:10.37,2013-01-10 15:16:00,
2013-01-10 15:21:00,37.6,37.6,29.96,ESE,119,1.2,1.2,100,0.00,SCT,,0.01,23.0,WeatherDisplay:10.37,2013-01-10 15:21:00,
2013-01-10 15:26:00,37.6,37.6,29.96,ESE,119,0.0,0.0,100,0.00,BKN,,0.01,16.0,WeatherDisplay:10.37,2013-01-10 15:26:00,
2013-01-10 15:31:00,37.8,37.8,29.96,ESE,121,0.0,0.0,100,0.00,OVC,,0.01,9.0,WeatherDisplay:10.37,2013-01-10 15:31:00,
2013-01-10 15:36:00,37.8,37.8,29.96,ESE,121,0.0,0.0,100,0.00,OVC,,0.01,9.0,WeatherDisplay:10.37,2013-01-10 15:36:00,
2013-01-10 15:42:00,37.8,37.8,29.95,ESE,119,0.0,0.0,100,0.00,OVC,,0.01,7.0,WeatherDisplay:10.37,2013-01-10 15:42:00,
2013-01-10 15:47:00,37.9,37.9,29.95,SE,126,0.0,0.0,100,0.00,SCT,,0.01,7.0,WeatherDisplay:10.37,2013-01-10 15:47:00,
2013-01-10 15:52:00,37.9,37.9,29.95,SE,126,1.2,1.2,100,0.00,CLR,,0.01,7.0,WeatherDisplay:10.37,2013-01-10 15:52:00,
2013-01-10 15:57:00,37.8,37.8,29.95,ESE,119,2.3,2.3,100,0.00,OVC,,0.01,5.0,WeatherDisplay:10.37,2013-01-10 15:57:00,
2013-01-10 16:02:00,37.8,37.8,29.94,East,88,3.0,3.0,100,0.00,OVC,,0.01,5.0,WeatherDisplay:10.37,2013-01-10 16:02:00,
2013-01-10 16:07:00,37.8,37.8,29.95,ESE,113,4.6,4.6,100,0.00,OVC,,0.01,5.0,WeatherDisplay:10.37,2013-01-10 16:07:00,
2013-01-10 16:12:00,37.9,37.9,29.95,South,171,4.6,4.6,100,0.00,OVC,,0.01,0.0,WeatherDisplay:10.37,2013-01-10 16:12:00,
2013-01-10 16:18:00,37.9,37.9,29.96,South,176,0.0,0.0,100,0.00,OVC,,0.01,0.0,WeatherDisplay:10.37,2013-01-10 16:18:00,
2013-01-10 16:23:00,37.9,37.9,29.96,South,176,0.0,0.0,100,0.00,OVC,,0.01,0.0,WeatherDisplay:10.37,2013-01-10 16:23:00,
2013-01-10 16:28:00,37.9,37.9,29.96,South,174,0.0,0.0,100,0.00,OVC,,0.01,0.0,WeatherDisplay:10.37,2013-01-10 16:28:00,
2013-01-10 16:33:00,37.9,37.9,29.96,South,169,2.3,2.3,100,0.00,OVC,,0.01,0.0,WeatherDisplay:10.37,2013-01-10 16:33:00,
2013-01-10 16:38:00,37.9,37.9,29.96,South,172,0.0,0.0,100,0.00,OVC,,0.01,0.0,WeatherDisplay:10.37,2013-01-10 16:38:00,
2013-01-10 16:43:00,38.0,38.0,29.96,South,175,0.0,0.0,100,0.00,CLR,,0.01,0.0,WeatherDisplay:10.37,2013-01-10 16:43:00,
2013-01-10 16:48:00,37.9,37.9,29.96,SSE,167,0.0,0.0,100,0.00,CLR,,0.01,0.0,WeatherDisplay:10.37,2013-01-10 16:48:00,
2013-01-10 16:54:00,37.9,37.9,29.96,South,175,0.0,0.0,100,0.00,CLR,,0.01,0.0,WeatherDisplay:10.37,2013-01-10 16:54:00,
2013-01-10 16:59:00,37.9,37.9,29.96,South,169,0.0,0.0,100,0.00,CLR,,0.01,0.0,WeatherDisplay:10.37,2013-01-10 16:59:00,
2013-01-10 17:04:00,37.8,37.8,29.96,South,175,0.0,0.0,100,0.00,CLR,,0.01,0.0,WeatherDisplay:10.37,2013-01-10 17:04:00,
2013-01-10 17:09:00,37.8,37.8,29.96,SSE,168,0.0,0.0,100,0.00,CLR,,0.01,0.0,WeatherDisplay:10.37,2013-01-10 17:09:00,
2013-01-10 17:14:00,37.8,37.8,29.96,South,172,0.0,0.0,100,0.00,CLR,,0.01,0.0,WeatherDisplay:10.37,2013-01-10 17:14:00,
2013-01-10 17:19:00,37.8,37.8,29.96,South,175,0.0,0.0,100,0.00,CLR,,0.01,0.0,WeatherDisplay:10.37,2013-01-10 17:19:00,
2013-01-10 17:24:00,37.6,37.6,29.96,SSE,168,0.0,0.0,100,0.00,CLR,,0.01,0.0,WeatherDisplay:10.37,2013-01-10 17:24:00,
2013-01-10 17:29:00,37.6,37.6,29.96,SSE,168,0.0,0.0,100,0.00,CLR,,0.01,0.0,WeatherDisplay:10.37,2013-01-10 17:29:00,
2013-01-10 17:35:00,37.5,37.5,29.96,South,176,0.0,0.0,100,0.00,CLR,,0.01,0.0,WeatherDisplay:10.37,2013-01-10 17:35:00,
2013-01-10 17:40:00,37.5,37.5,29.96,SSE,167,0.0,0.0,100,0.00,CLR,,0.01,0.0,WeatherDisplay:10.37,2013-01-10 17:40:00,
2013-01-10 17:45:00,37.3,37.3,29.96,South,171,0.0,0.0,100,0.00,,,0.01,0.0,WeatherDisplay:10.37,2013-01-10 17:45:00,
2013-01-10 17:50:00,37.3,37.3,29.96,South,175,0.0,0.0,100,0.00,,,0.01,0.0,WeatherDisplay:10.37,2013-01-10 17:50:00,
2013-01-10 17:55:00,37.3,37.3,29.96,South,175,0.0,0.0,100,0.00,,,0.01,0.0,WeatherDisplay:10.37,2013-01-10 17:55:00,
2013-01-10 18:01:00,37.2,37.2,29.96,South,176,0.0,0.0,100,0.00,,,0.01,0.0,WeatherDisplay:10.37,2013-01-10 18:01:00,
2013-01-10 18:06:00,37.2,37.2,29.96,SSE,168,0.0,0.0,100,0.00,,,0.01,0.0,WeatherDisplay:10.37,2013-01-10 18:06:00,
2013-01-10 18:11:00,37.2,37.2,29.96,South,178,0.0,0.0,100,0.00,,,0.01,0.0,WeatherDisplay:10.37,2013-01-10 18:11:00,
2013-01-10 18:16:00,37.2,37.2,29.96,SSE,165,1.0,1.0,100,0.00,,,0.01,0.0,WeatherDisplay:10.37,2013-01-10 18:16:00,
2013-01-10 18:21:00,37.3,37.3,29.96,South,171,0.0,0.0,100,0.00,,,0.01,0.0,WeatherDisplay:10.37,2013-01-10 18:21:00,
2013-01-10 18:26:00,37.5,37.5,29.96,South,169,0.0,0.0,100,0.00,,,0.01,0.0,WeatherDisplay:10.37,2013-01-10 18:26:00,
2013-01-10 18:31:00,37.5,37.5,29.96,South,178,0.0,0.0,100,0.00,,,0.01,0.0,WeatherDisplay:10.37,2013-01-10 18:31:00,
2013-01-10 18:36:00,37.5,37.5,29.96,South,169,0.0,0.0,100,0.00,,,0.01,0.0,WeatherDisplay:10.37,2013-01-10 18:36:00,
2013-01-10 18:42:00,37.5,37.5,29.96,SSE,168,0.0,0.0,100,0.00,,,0.01,0.0,WeatherDisplay:10.37,2013-01-10 18:42:00,
2013-01-10 18:47:00,37.5,37.5,29.96,SSE,168,0.0,0.0,100,0.00,,,0.01,0.0,WeatherDisplay:10.37,2013-01-10 18:47:00,
2013-01-10 18:52:00,37.3,37.3,29.96,South,178,0.0,0.0,100,0.00,,,0.01,0.0,WeatherDisplay:10.37,2013-01-10 18:52:00,
2013-01-10 18:57:00,37.2,37.2,29.96,SSE,168,0.0,0.0,100,0.00,,,0.01,0.0,WeatherDisplay:10.37,2013-01-10 18:57:00,
2013-01-10 19:02:00,37.0,37.0,29.96,South,174,0.0,0.0,100,0.00,,,0.01,0.0,WeatherDisplay:10.37,2013-01-10 19:02:00,
2013-01-10 19:07:00,36.8,36.8,29.96,SSE,168,0.0,0.0,100,0.00,,,0.01,0.0,WeatherDisplay:10.37,2013-01-10 19:07:00,
2013-01-10 19:12:00,36.6,36.6,29.96,South,175,0.0,0.0,100,0.00,,,0.01,0.0,WeatherDisplay:10.37,2013-01-10 19:12:00,
2013-01-10 19:17:00,36.5,36.5,29.96,South,174,0.0,0.0,100,0.00,,,0.01,0.0,WeatherDisplay:10.37,2013-01-10 19:17:00,
2013-01-10 19:22:00,36.3,36.3,29.96,South,175,0.0,0.0,100,0.00,,,0.01,0.0,WeatherDisplay:10.37,2013-01-10 19:22:00,
2013-01-10 19:27:00,36.2,36.2,29.96,South,175,0.0,0.0,100,0.00,,,0.01,0.0,WeatherDisplay:10.37,2013-01-10 19:27:00,
2013-01-10 19:32:00,36.2,36.2,29.96,SSE,168,0.0,0.0,100,0.00,,,0.01,0.0,WeatherDisplay:10.37,2013-01-10 19:32:00,
2013-01-10 19:37:00,36.0,36.0,29.96,South,169,0.0,0.0,100,0.00,,,0.01,0.0,WeatherDisplay:10.37,2013-01-10 19:37:00,
2013-01-10 19:42:00,35.9,35.9,29.96,South,178,0.0,0.0,100,0.00,,,0.01,0.0,WeatherDisplay:10.37,2013-01-10 19:42:00,
2013-01-10 19:48:00,35.8,35.8,29.96,South,174,0.0,0.0,100,0.00,,,0.01,0.0,WeatherDisplay:10.37,2013-01-10 19:48:00,
2013-01-10 19:53:00,35.6,35.6,29.96,South,174,0.0,0.0,100,0.00,,,0.01,0.0,WeatherDisplay:10.37,2013-01-10 19:53:00,
2013-01-10 19:58:00,35.5,35.5,29.96,South,175,0.0,0.0,100,0.00,,,0.01,0.0,WeatherDisplay:10.37,2013-01-10 19:58:00,
2013-01-10 20:03:00,35.3,35.3,29.96,South,174,0.0,0.0,100,0.00,,,0.01,0.0,WeatherDisplay:10.37,2013-01-10 20:03:00,
2013-01-10 20:08:00,35.2,35.2,29.96,South,172,0.0,0.0,100,0.00,,,0.01,0.0,WeatherDisplay:10.37,2013-01-10 20:08:00,
2013-01-10 20:14:00,35.2,35.2,29.96,South,176,0.0,0.0,100,0.00,,,0.01,0.0,WeatherDisplay:10.37,2013-01-10 20:14:00,
2013-01-10 20:19:00,35.0,35.0,29.96,SSE,168,0.0,0.0,100,0.00,,,0.01,0.0,WeatherDisplay:10.37,2013-01-10 20:19:00,
2013-01-10 20:24:00,35.0,35.0,29.97,SSE,167,0.0,0.0,100,0.00,,,0.01,0.0,WeatherDisplay:10.37,2013-01-10 20:24:00,
2013-01-10 20:29:00,35.0,35.0,29.97,South,169,0.0,0.0,100,0.00,,,0.01,0.0,WeatherDisplay:10.37,2013-01-10 20:29:00,
2013-01-10 20:35:00,34.9,34.9,29.97,South,169,0.0,0.0,100,0.00,,,0.01,0.0,WeatherDisplay:10.37,2013-01-10 20:35:00,
2013-01-10 20:40:00,34.9,34.9,29.97,South,171,0.0,0.0,100,0.00,,,0.01,0.0,WeatherDisplay:10.37,2013-01-10 20:40:00,
2013-01-10 20:45:00,34.9,34.9,29.98,South,173,0.0,1.0,100,0.00,,,0.01,0.0,WeatherDisplay:10.37,2013-01-10 20:45:00,
2013-01-10 20:50:00,34.9,34.9,29.98,South,174,0.0,0.0,100,0.00,,,0.01,0.0,WeatherDisplay:10.37,2013-01-10 20:50:00,
2013-01-10 20:55:00,35.0,35.0,29.98,South,178,0.0,0.0,100,0.00,,,0.01,0.0,WeatherDisplay:10.37,2013-01-10 20:55:00,
2013-01-10 21:00:00,35.2,35.2,29.98,South,176,0.0,0.0,100,0.00,,,0.01,0.0,WeatherDisplay:10.37,2013-01-10 21:00:00,
2013-01-10 21:05:00,35.3,35.3,29.98,South,176,0.0,0.0,100,0.00,,,0.01,0.0,WeatherDisplay:10.37,2013-01-10 21:05:00,
2013-01-10 21:11:00,35.5,35.5,29.98,South,178,0.0,0.0,100,0.00,,,0.01,0.0,WeatherDisplay:10.37,2013-01-10 21:11:00,
2013-01-10 21:16:00,35.6,35.6,29.98,South,175,0.0,0.0,100,0.00,,,0.01,0.0,WeatherDisplay:10.37,2013-01-10 21:16:00,
2013-01-10 21:21:00,35.6,35.6,29.98,South,178,0.0,0.0,100,0.00,,,0.01,0.0,WeatherDisplay:10.37,2013-01-10 21:21:00,
2013-01-10 21:26:00,35.8,35.8,29.98,South,176,0.0,0.0,100,0.00,,,0.01,0.0,WeatherDisplay:10.37,2013-01-10 21:26:00,
2013-01-10 21:31:00,35.9,35.9,29.98,SSE,165,0.0,0.0,100,0.00,,,0.01,0.0,WeatherDisplay:10.37,2013-01-10 21:31:00,
2013-01-10 21:37:00,36.0,36.0,29.98,South,169,0.0,0.0,100,0.00,,,0.01,0.0,WeatherDisplay:10.37,2013-01-10 21:37:00,
2013-01-10 21:42:00,36.0,36.0,29.98,South,176,0.0,0.0,100,0.00,,,0.01,0.0,WeatherDisplay:10.37,2013-01-10 21:42:00,
2013-01-10 21:47:00,36.2,36.2,29.98,SSE,165,0.0,0.0,100,0.00,,,0.01,0.0,WeatherDisplay:10.37,2013-01-10 21:47:00,
2013-01-10 21:52:00,36.3,36.3,29.98,South,174,0.0,0.0,100,0.00,,,0.01,0.0,WeatherDisplay:10.37,2013-01-10 21:52:00,
2013-01-10 21:57:00,36.3,36.3,29.98,South,176,0.0,0.0,100,0.00,,,0.01,0.0,WeatherDisplay:10.37,2013-01-10 21:57:00,
2013-01-10 22:02:00,36.5,36.5,29.98,South,175,0.0,0.0,100,0.00,,,0.01,0.0,WeatherDisplay:10.37,2013-01-10 22:02:00,
2013-01-10 22:07:00,36.5,36.5,29.98,South,178,0.0,0.0,100,0.00,,,0.01,0.0,WeatherDisplay:10.37,2013-01-10 22:07:00,
2013-01-10 22:12:00,36.6,36.6,29.98,South,175,0.0,0.0,100,0.00,,,0.01,0.0,WeatherDisplay:10.37,2013-01-10 22:12:00,
2013-01-10 22:18:00,36.6,36.6,29.98,SSE,168,0.0,0.0,100,0.00,,,0.01,0.0,WeatherDisplay:10.37,2013-01-10 22:18:00,
2013-01-10 22:23:00,36.9,36.9,29.98,South,176,0.0,0.0,100,0.00,,,0.01,0.0,WeatherDisplay:10.37,2013-01-10 22:23:00,
2013-01-10 22:28:00,36.9,36.9,29.98,SSE,165,0.0,0.0,100,0.00,,,0.01,0.0,WeatherDisplay:10.37,2013-01-10 22:28:00,
2013-01-10 22:33:00,37.0,37.0,29.98,South,174,0.0,0.0,100,0.00,,,0.01,0.0,WeatherDisplay:10.37,2013-01-10 22:33:00,
2013-01-10 22:38:00,37.2,37.2,29.98,SSE,168,0.0,0.0,100,0.00,,,0.01,0.0,WeatherDisplay:10.37,2013-01-10 22:38:00,
2013-01-10 22:44:00,37.3,37.3,29.98,South,176,0.0,0.0,100,0.00,,,0.01,0.0,WeatherDisplay:10.37,2013-01-10 22:44:00,
2013-01-10 22:49:00,37.3,37.3,29.98,South,175,0.0,0.0,100,0.00,,,0.01,0.0,WeatherDisplay:10.37,2013-01-10 22:49:00,
2013-01-10 22:54:00,37.5,37.5,29.98,South,175,0.0,0.0,100,0.00,,,0.01,0.0,WeatherDisplay:10.37,2013-01-10 22:54:00,
2013-01-10 22:59:00,37.5,37.5,29.98,South,169,0.0,0.0,100,0.00,,,0.01,0.0,WeatherDisplay:10.37,2013-01-10 22:59:00,
2013-01-10 23:04:00,37.5,37.5,29.98,South,178,0.0,0.0,100,0.00,,,0.01,0.0,WeatherDisplay:10.37,2013-01-10 23:04:00,
2013-01-10 23:09:00,37.5,37.5,29.98,South,171,0.0,0.0,100,0.00,,,0.01,0.0,WeatherDisplay:10.37,2013-01-10 23:09:00,
2013-01-10 23:14:00,37.5,37.5,29.98,South,176,0.0,0.0,100,0.00,,,0.01,0.0,WeatherDisplay:10.37,2013-01-10 23:14:00,
2013-01-10 23:19:00,37.5,37.5,29.98,South,171,0.0,0.0,100,0.00,,,0.01,0.0,WeatherDisplay:10.37,2013-01-10 23:19:00,
2013-01-10 23:25:00,37.6,37.6,29.99,SSE,168,0.0,0.0,100,0.00,,,0.01,0.0,WeatherDisplay:10.37,2013-01-10 23:25:00,
2013-01-10 23:30:00,37.8,37.8,29.99,South,171,0.0,0.0,100,0.00,,,0.01,0.0,WeatherDisplay:10.37,2013-01-10 23:30:00,
2013-01-10 23:35:00,37.8,37.8,29.99,SSE,165,0.0,0.0,100,0.00,,,0.01,0.0,WeatherDisplay:10.37,2013-01-10 23:35:00,
2013-01-10 23:40:00,37.9,37.9,29.99,South,175,0.0,0.0,100,0.00,,,0.01,0.0,WeatherDisplay:10.37,2013-01-10 23:40:00,
2013-01-10 23:45:00,37.9,37.9,29.99,SSE,167,0.0,0.0,100,0.00,,,0.01,0.0,WeatherDisplay:10.37,2013-01-10 23:45:00,
2013-01-10 23:51:00,37.9,37.9,29.99,South,176,0.0,0.0,100,0.00,,,0.01,0.0,WeatherDisplay:10.37,2013-01-10 23:51:00,
2013-01-10 23:56:00,37.9,37.9,29.99,South,169,0.0,0.0,100,0.00,,,0.01,0.0,WeatherDisplay:10.37,2013-01-10 23:56:00,